GFSSE_500_spd_000.txt.gz
Wind_Speed
19 16 19 20 20 20 17 15 12 14 11 10 10 8 8 8 7 8 6 5 6 6 5 4 2 2 5 3 3 5 9 12 13 13 13 14 16 17 18 16 14 12 12
17 18 16 16 17 15 13 13 14 11 10 8 8 7 9 8 8 7 8 8 6 4 4 3 3 3 3 2 4 7 10 11 12 12 14 13 14 15 16 16 14 13 12
18 17 17 17 15 15 15 14 13 11 7 8 6 6 9 9 8 10 12 11 9 6 4 5 5 5 4 3 5 6 8 8 10 11 12 10 10 12 13 14 12 9 10
16 17 18 15 16 15 13 12 10 10 7 8 6 8 11 10 11 11 13 13 12 9 7 6 7 6 4 3 5 5 5 5 8 7 8 8 9 12 12 12 12 11 8
17 15 17 14 15 14 12 11 11 10 10 10 11 11 11 12 12 14 12 11 12 12 9 7 6 6 3 3 4 4 3 2 6 6 2 6 7 10 9 9 9 9 9
15 13 14 13 13 12 12 11 12 11 12 14 13 12 13 13 13 12 12 12 12 12 12 10 7 5 4 1 2 3 3 2 4 4 2 4 7 8 8 9 8 8 8
15 13 13 13 13 12 11 11 10 11 13 14 13 12 11 10 10 10 11 11 10 10 10 9 8 5 5 4 2 2 2 3 3 1 6 6 4 6 7 8 8 7 5
15 13 12 12 11 11 10 11 12 12 12 10 9 9 9 9 9 7 7 7 8 8 8 7 6 5 4 4 4 4 4 6 2 1 5 9 5 7 6 7 7 7 5
13 12 12 13 11 10 11 10 9 9 9 10 10 10 9 11 10 7 7 8 6 7 7 6 6 5 5 5 5 5 5 8 7 5 3 5 6 6 4 4 5 6 5
13 12 11 11 9 8 7 6 7 7 8 9 11 11 10 11 11 8 6 8 8 9 8 8 7 6 6 5 5 5 6 9 9 8 8 7 11 8 5 4 3 5 4
10 9 9 8 8 10 6 5 6 7 8 8 10 11 11 11 14 6 7 8 9 9 8 7 7 8 7 8 9 10 11 12 14 10 10 12 11 8 6 6 4 2 4
14 15 14 12 11 10 9 7 8 9 9 9 10 9 8 9 10 10 9 9 10 10 10 10 9 8 9 10 11 12 13 13 14 12 12 12 13 13 12 10 9 4 4
15 13 11 13 11 8 9 9 9 10 10 11 11 11 10 11 10 8 8 9 8 9 9 11 10 11 8 11 12 11 10 9 10 14 12 14 13 15 14 13 12 7 5
10 8 10 12 10 8 9 10 11 13 12 13 12 11 10 10 11 12 9 11 12 13 12 12 11 12 13 11 12 12 11 12 13 13 14 15 15 14 14 14 13 11 8
8 10 11 11 11 10 9 10 13 13 13 11 11 12 11 10 9 9 10 10 10 12 11 11 11 12 12 13 12 15 17 13 11 14 13 15 17 17 16 15 15 11 12
7 9 10 10 11 11 10 10 11 11 12 12 11 10 10 10 10 10 11 12 11 11 12 11 11 12 11 11 12 12 13 16 14 13 15 15 18 20 18 17 17 15 14
7 7 7 8 8 7 8 8 10 10 11 12 13 12 10 10 11 11 13 14 13 14 15 14 12 12 13 11 11 10 10 13 15 15 17 17 18 19 23 21 20 19 18
6 6 5 5 5 4 5 6 7 10 12 13 14 13 11 10 11 11 11 13 15 16 16 15 14 14 14 14 14 14 13 12 13 17 16 22 20 19 21 24 25 23 22
3 3 3 5 5 4 5 6 8 8 10 12 13 13 13 12 11 13 14 15 15 16 17 18 17 16 17 17 16 17 17 18 17 16 17 19 25 24 22 23 24 27 26
5 6 5 5 5 6 6 6 7 7 8 10 11 13 13 13 13 14 13 14 15 16 17 18 19 19 19 19 21 23 22 19 20 20 19 19 21 24 28 28 26 26 31
4 5 5 4 5 5 7 8 8 7 8 9 10 11 11 12 12 13 14 14 15 16 17 18 19 21 20 20 21 24 24 24 22 21 21 21 22 26 26 27 31 30 31
4 3 3 3 3 4 6 6 8 9 10 11 12 13 12 13 12 13 13 15 16 17 19 20 22 23 24 21 22 23 25 24 23 22 21 21 24 26 29 32 31 33 34
5 2 1 3 5 4 6 8 9 10 12 14 14 15 16 17 17 17 18 18 19 20 22 22 23 23 26 26 25 24 24 25 25 25 23 20 21 26 31 33 33 33 35
4 4 5 8 8 9 10 11 12 14 14 14 15 16 18 19 21 22 22 23 23 24 25 26 26 25 25 28 29 29 28 26 23 25 27 25 23 24 26 32 34 35 38
9 9 10 12 13 13 14 16 17 18 18 19 18 19 19 20 21 22 23 24 25 27 29 30 30 28 28 29 32 33 33 31 28 25 25 29 29 26 25 29 31 36 38
13 14 16 17 18 19 19 19 22 23 21 20 21 23 25 26 25 26 26 26 27 28 30 31 31 31 30 31 34 35 35 34 34 30 28 29 28 32 31 30 31 32 37

GFSSE_500_spd_003.txt.gz
Wind_Speed
16 22 18 21 19 16 12 13 14 13 13 13 11 10 11 10 11 12 11 11 10 9 9 10 10 11 11 8 6 8 10 11 13 13 13 13 15 14 13 13 14 13 11
19 17 18 19 18 13 11 13 13 13 11 11 11 11 11 13 14 14 15 14 13 9 9 9 10 10 10 7 7 7 9 9 12 13 13 13 14 15 14 12 13 14 14
19 19 19 19 17 14 12 12 13 13 12 12 13 13 14 14 13 14 16 16 14 12 9 8 9 9 7 5 7 7 7 8 10 13 14 13 12 13 16 15 11 10 9
20 20 19 18 16 14 14 15 16 16 16 16 15 15 14 13 13 14 14 14 16 16 13 10 8 7 6 5 8 6 6 7 7 9 10 10 11 12 12 11 12 9 8
20 19 17 17 15 15 16 17 17 17 18 16 16 15 14 14 15 15 14 14 15 14 13 12 10 7 5 4 6 6 5 7 6 5 9 8 9 10 9 8 9 9 10
16 15 16 14 14 15 17 17 17 16 15 13 13 11 11 11 12 11 10 10 11 10 9 9 10 8 5 1 2 4 3 4 8 8 5 5 6 7 8 7 8 7 7
16 14 15 14 13 12 12 13 13 12 11 9 8 8 10 10 10 8 7 7 8 8 9 9 8 7 5 1 1 2 2 3 3 9 11 3 7 7 6 6 7 6 5
15 15 15 15 14 12 12 14 14 13 13 12 12 11 12 11 10 7 7 8 8 8 7 8 7 6 5 4 1 3 3 1 2 4 10 6 7 7 6 5 6 6 4
9 8 7 8 9 10 12 11 10 10 10 9 9 9 8 9 8 6 5 7 4 3 4 5 6 5 5 3 2 3 5 3 3 6 7 7 6 3 5 5 5 6 4
8 7 8 9 8 7 8 7 6 5 5 6 9 8 7 8 10 6 5 5 6 4 3 4 6 5 6 6 5 5 6 6 5 7 11 12 13 8 5 3 3 3 5
6 5 9 11 11 10 9 9 8 7 6 6 7 7 7 7 6 6 7 7 7 6 4 4 7 7 5 7 8 9 9 9 11 10 12 13 12 10 8 5 4 4 3
8 11 12 12 11 11 8 7 7 8 6 6 7 7 6 5 7 8 8 10 8 7 6 6 8 8 7 9 9 9 13 12 10 8 11 12 14 13 13 10 7 6 3
12 13 13 10 10 10 9 8 8 7 6 6 7 7 6 6 7 8 9 10 10 9 10 10 11 9 9 9 10 11 9 12 11 7 9 13 16 14 15 16 13 11 7
9 11 11 11 10 9 9 11 10 9 7 6 6 7 7 6 5 6 7 10 11 10 9 10 9 9 9 9 10 10 10 11 12 10 9 11 16 17 15 16 15 15 11
14 13 12 10 9 10 11 11 9 7 8 8 7 7 7 7 7 8 8 9 10 11 11 10 11 11 11 10 10 10 10 10 14 14 12 12 13 16 17 15 15 15 13
11 13 12 11 10 9 9 8 9 9 9 10 9 9 9 9 8 9 9 10 12 14 15 13 12 11 9 9 9 10 12 11 10 17 17 14 14 14 17 18 17 17 14
10 8 9 9 6 7 6 6 8 9 10 11 11 8 7 10 9 8 8 10 11 13 14 13 13 14 14 12 11 11 12 13 11 11 14 20 18 17 16 21 20 20 18
9 7 6 6 5 5 3 4 5 8 10 10 10 8 7 7 8 8 8 9 12 13 14 14 15 16 16 17 17 15 14 15 17 15 13 19 20 21 20 20 24 24 22
7 6 6 6 5 4 1 3 4 4 5 6 7 6 7 8 8 9 11 11 12 13 14 15 16 17 17 18 19 19 19 17 15 17 18 16 21 20 24 23 23 26 28
7 8 8 7 5 4 3 3 1 1 2 4 6 6 7 7 9 10 12 13 14 15 16 16 17 17 17 20 20 19 20 21 19 17 16 17 18 20 22 29 28 26 27
6 5 6 6 5 3 2 1 2 3 4 4 4 4 5 5 7 9 11 12 14 16 17 18 19 19 18 19 22 22 22 22 22 20 19 18 17 20 22 26 27 30 31
8 6 5 4 3 2 2 4 5 5 6 7 8 9 10 10 11 12 13 13 14 15 17 18 20 22 23 21 21 24 24 23 23 22 20 20 19 19 21 25 28 30 31
9 8 7 6 4 4 7 9 10 9 9 10 11 12 14 15 15 16 16 17 17 18 19 20 21 22 23 22 22 22 24 26 26 25 22 21 21 21 22 24 27 31 33
11 11 10 8 8 8 11 13 13 13 13 15 16 16 18 19 21 21 21 21 20 20 21 22 22 23 24 25 23 23 24 26 27 28 27 24 23 25 25 25 27 29 35
16 14 14 13 13 14 15 17 18 19 19 19 21 21 22 22 23 24 23 22 21 21 22 22 23 25 27 26 26 25 26 27 27 25 27 28 28 27 29 30 29 31 33
21 19 16 16 18 19 21 21 24 28 24 24 25 24 22 22 23 23 22 23 23 24 25 25 26 28 30 30 29 30 31 32 30 29 25 25 30 33 34 33 31 32 35

GFSSE_500_spd_006.txt.gz
Wind_Speed
18 16 17 19 17 17 18 17 21 18 15 15 16 15 14 17 17 17 16 15 11 9 10 12 13 12 10 10 11 13 13 15 15 14 13 14 13 14 13 14 14 14 14
20 17 17 18 19 21 21 20 18 13 15 16 16 16 16 16 17 17 16 15 11 11 11 10 10 11 10 10 11 12 12 13 15 13 13 13 14 13 11 14 13 14 14
18 18 16 19 19 19 18 17 16 17 17 16 15 15 15 14 15 16 17 16 13 13 10 7 7 9 8 8 11 11 10 11 12 14 13 13 13 14 14 11 9 10 10
23 23 20 20 19 18 17 17 17 18 16 15 14 14 15 16 15 15 14 12 11 10 9 9 9 9 8 7 8 9 8 10 10 5 11 11 10 12 10 9 9 6 8
22 22 20 20 18 16 17 16 16 16 15 13 14 14 13 13 12 11 10 10 9 8 9 11 11 8 6 7 6 7 8 10 9 8 7 10 10 10 8 6 9 8 7
19 19 18 17 16 15 14 14 14 14 13 11 11 10 10 9 9 9 10 10 9 8 9 9 9 8 4 5 5 4 6 7 8 10 2 5 7 6 7 6 5 8 7
17 17 16 15 13 12 12 13 12 11 10 10 11 11 11 8 9 8 8 9 6 6 6 8 8 7 6 2 2 3 3 4 7 9 8 2 2 5 5 4 6 6 6
14 14 12 12 11 11 11 12 11 11 10 12 11 10 9 9 9 7 6 7 5 4 5 7 7 6 4 2 2 3 4 4 4 6 8 6 6 2 3 2 5 5 5
7 7 6 7 8 9 11 11 9 8 9 10 9 8 8 10 7 7 7 6 4 2 3 5 5 5 3 0 1 2 4 4 6 7 9 10 5 4 1 1 2 5 4
3 4 4 6 7 8 9 9 9 9 10 11 11 9 9 10 11 9 7 7 5 3 1 3 4 5 7 4 3 3 5 5 6 7 12 12 8 10 6 3 1 2 4
5 5 8 8 10 11 10 10 8 10 9 10 10 8 8 8 8 8 8 8 7 6 5 6 6 7 9 8 7 6 7 8 8 11 12 14 14 11 9 8 4 2 1
5 9 10 11 11 10 9 7 8 7 7 8 8 8 8 7 7 7 6 7 8 9 10 11 10 9 10 10 11 11 9 10 9 10 10 13 14 13 11 12 9 7 5
10 11 12 11 11 9 8 7 7 7 8 8 8 8 6 5 7 8 10 11 12 12 11 11 12 11 9 8 10 12 13 13 9 8 8 10 14 15 14 15 15 12 10
12 13 12 11 11 11 9 9 8 8 7 7 7 6 5 5 6 9 12 13 13 12 10 9 9 9 8 8 7 8 8 12 14 10 10 10 12 14 18 16 17 16 15
15 15 13 10 10 10 9 9 8 8 8 7 7 6 6 6 7 8 9 11 13 13 11 11 12 11 11 11 11 10 8 10 12 13 11 11 11 13 17 18 18 16 17
15 14 13 13 11 9 8 8 9 9 9 8 7 8 7 6 7 7 8 10 12 13 13 12 12 12 11 11 12 14 13 12 11 14 13 13 14 14 16 19 19 18 18
12 12 11 10 8 6 5 6 8 8 7 8 6 7 7 7 6 5 6 7 9 10 11 11 13 13 13 13 13 13 15 16 13 11 14 16 16 15 17 19 22 21 20
10 10 9 8 7 6 3 4 4 5 5 7 6 7 7 5 6 8 7 7 8 10 11 11 12 13 15 15 14 14 14 16 16 15 12 14 16 19 17 20 21 25 24
9 8 7 7 6 5 3 3 3 3 4 5 5 6 6 5 6 8 8 9 10 10 11 12 13 14 16 18 18 16 16 17 17 17 15 14 14 16 18 20 23 23 25
8 8 9 7 5 3 3 2 2 1 2 4 4 4 5 7 9 9 10 11 12 12 13 14 15 15 16 19 20 19 18 18 17 17 16 16 16 14 15 19 22 26 25
10 10 9 8 6 6 3 1 1 2 4 5 7 7 7 8 10 12 12 13 14 14 15 15 16 15 16 19 21 20 20 19 19 19 18 16 16 17 16 15 19 23 28
8 9 10 10 9 7 5 4 3 3 4 6 8 9 10 11 13 14 15 16 17 17 17 17 16 14 15 17 19 23 21 20 20 22 21 20 18 16 17 18 18 20 26
11 12 11 10 10 10 8 7 6 6 7 9 10 12 14 15 16 16 18 18 18 18 17 18 18 19 18 18 18 20 23 23 23 21 21 22 21 20 18 18 21 22 24
13 14 13 12 13 13 11 11 12 12 12 14 17 18 18 20 21 20 19 18 17 18 19 19 20 20 20 21 21 21 19 21 25 27 24 22 22 21 21 21 22 26 26
17 16 16 17 17 16 16 16 17 19 21 24 25 22 22 24 25 23 21 19 18 18 18 19 20 20 21 23 25 24 23 22 22 25 27 26 23 20 23 25 26 27 30
21 19 21 22 22 19 18 20 23 27 29 25 22 21 23 26 26 23 20 19 19 19 18 20 22 24 24 25 27 28 28 27 24 22 24 26 25 24 24 26 26 27 29

GFSSE_500_spd_009.txt.gz
Wind_Speed
20 15 18 20 19 17 21 23 23 19 17 19 18 18 20 21 19 16 13 12 9 10 10 10 10 11 11 11 11 13 13 14 15 14 14 14 13 14 14 14 12 12 13
21 20 20 20 18 20 19 21 20 17 18 18 16 17 18 19 18 16 13 11 9 9 8 9 10 10 11 11 10 11 13 14 14 14 14 14 12 14 15 14 14 13 11
19 17 20 23 21 21 19 20 18 17 16 16 15 15 16 17 17 14 11 10 11 9 10 9 9 10 10 10 9 10 11 14 15 12 14 14 13 12 12 13 10 11 12
16 19 19 20 19 18 16 16 14 14 13 13 14 14 15 15 13 12 10 9 9 11 11 9 7 8 10 9 8 7 8 9 10 10 9 11 9 10 10 10 8 8 9
18 19 18 17 16 14 14 13 12 11 12 12 13 13 12 11 9 9 9 7 7 9 9 10 8 7 8 8 6 6 8 8 9 8 7 9 10 8 7 8 8 8 7
17 17 15 15 13 12 12 12 12 11 12 11 11 10 10 9 8 9 8 7 6 7 9 9 9 6 6 7 6 5 6 5 7 5 4 6 8 6 6 7 6 8 9
14 14 14 13 13 12 12 11 11 11 11 11 11 10 8 7 8 7 8 6 6 7 8 8 7 6 4 4 4 5 4 4 3 5 6 2 4 6 4 5 4 6 7
13 12 11 10 10 11 11 10 11 12 12 11 9 7 7 7 8 9 7 5 4 5 6 5 6 6 5 2 2 4 5 4 5 5 3 6 4 4 3 2 3 5 6
5 4 4 5 9 10 10 10 12 12 12 10 9 9 13 12 11 9 7 5 4 4 5 6 5 4 5 3 3 2 4 5 5 5 7 6 7 6 3 1 1 3 6
2 3 5 10 11 10 11 14 13 13 12 11 11 11 12 12 12 12 11 9 7 5 4 6 7 6 5 3 5 4 5 5 5 6 9 11 9 8 7 5 2 2 4
2 4 9 11 11 12 11 11 11 11 11 11 11 10 9 9 11 10 9 9 8 8 7 8 9 9 8 8 7 7 6 8 9 9 11 13 14 11 11 10 7 4 4
5 9 12 12 12 11 9 9 10 9 9 9 9 8 8 8 8 9 9 9 10 10 9 9 8 8 8 8 8 8 9 9 10 10 11 13 15 15 16 13 11 8 7
10 12 13 13 12 11 9 7 8 7 7 8 7 7 7 7 8 10 11 12 12 12 12 11 11 11 10 9 10 10 10 10 9 10 11 10 13 15 16 17 15 13 10
12 12 12 12 11 10 9 7 6 7 7 7 6 7 6 6 8 11 13 14 13 12 13 13 13 12 11 10 10 10 9 11 11 9 11 14 12 15 17 18 17 20 16
13 14 13 11 10 9 9 8 7 8 7 7 6 6 7 7 6 9 11 12 13 13 13 14 14 13 13 13 12 11 11 10 11 10 9 11 12 14 15 18 18 19 20
14 13 12 11 9 8 8 7 7 7 7 7 7 6 5 6 6 7 8 10 10 11 12 12 12 12 12 13 12 12 12 11 10 11 10 9 9 13 14 15 18 19 18
15 14 12 11 8 7 4 6 7 6 7 5 7 6 5 5 4 6 6 7 9 11 10 10 10 11 12 12 13 13 13 13 13 12 11 12 12 12 13 15 16 19 21
12 11 10 8 7 4 3 4 5 4 5 6 5 5 5 4 6 6 6 7 8 9 10 10 11 12 14 14 13 14 14 14 15 14 13 12 12 12 13 15 17 18 20
10 9 8 8 8 6 4 3 4 2 3 6 5 5 7 8 9 11 11 11 10 10 10 10 10 11 13 14 14 14 15 16 15 15 14 13 12 12 12 12 16 17 20
11 11 11 10 8 8 5 4 3 2 1 3 3 4 6 7 9 10 11 12 13 13 13 13 13 14 15 16 15 15 15 14 15 14 13 13 13 13 12 11 12 15 18
10 11 12 11 9 6 5 3 2 3 4 4 5 6 7 8 9 9 11 13 14 15 15 14 14 14 16 17 17 16 15 16 15 16 17 15 14 14 14 12 11 12 15
11 12 12 11 10 10 8 6 5 5 5 5 7 8 10 11 12 14 14 15 16 16 15 14 13 13 15 16 18 18 17 16 15 16 16 18 18 16 15 14 12 12 15
11 13 13 12 12 12 10 9 7 7 8 9 10 12 13 15 15 17 18 18 17 16 15 13 13 14 15 14 16 19 20 18 16 16 17 18 19 18 18 16 16 15 16
12 14 15 14 15 14 13 13 13 13 13 15 17 20 22 20 18 18 20 20 17 15 14 12 12 14 14 15 16 17 19 21 21 19 19 18 18 20 20 20 19 20 19
16 18 17 17 17 17 16 17 18 19 20 21 24 23 19 19 18 18 19 19 17 16 16 15 13 13 14 16 18 19 19 19 21 23 23 21 21 19 19 20 22 24 25
17 21 22 21 19 19 20 21 22 24 26 23 20 20 19 18 18 18 20 21 18 18 17 16 16 16 17 19 20 21 23 20 20 21 24 26 26 23 24 26 26 29 30

GFSSE_500_spd_012.txt.gz
Wind_Speed
18 20 22 20 20 25 26 25 22 19 22 21 21 20 17 16 16 14 13 11 10 10 10 10 11 11 12 11 12 13 13 12 13 13 13 12 10 11 13 11 11 11 13
16 18 19 18 19 22 16 18 19 20 19 19 19 17 15 15 14 12 10 9 8 8 8 9 11 11 12 10 11 11 13 13 13 13 13 13 12 11 12 13 12 11 11
17 18 16 16 14 17 19 22 20 17 17 16 15 15 14 13 12 9 9 10 9 9 7 8 11 11 11 10 10 10 13 13 10 11 13 12 11 10 11 11 12 12 10
15 18 16 16 16 16 17 16 15 13 12 13 14 13 12 11 8 7 7 9 9 10 9 8 10 9 9 9 7 6 7 10 10 7 10 10 8 9 7 8 7 9 7
12 14 14 14 13 14 13 13 11 11 11 13 12 10 9 8 7 6 6 8 8 9 9 8 7 7 8 8 6 5 5 4 9 7 8 10 8 7 7 6 5 5 7
12 12 10 10 9 10 9 10 10 10 10 10 9 8 7 6 6 5 5 7 9 8 8 8 6 5 6 7 6 4 5 4 3 3 5 6 8 6 4 4 6 5 6
11 10 10 9 8 10 9 11 10 10 10 10 10 8 6 6 5 4 4 5 7 8 8 7 6 5 3 5 5 4 3 2 1 4 1 2 3 5 4 1 3 6 6
10 8 6 6 8 10 11 11 11 10 9 9 9 9 7 7 7 5 4 3 4 5 7 7 5 4 3 2 3 5 5 4 4 3 3 4 4 3 3 1 2 5 5
5 3 3 7 8 10 10 12 12 11 11 12 12 12 13 10 8 6 5 5 4 5 6 6 6 3 3 3 2 1 5 6 6 7 5 4 6 7 4 2 2 4 6
2 2 6 8 9 11 13 13 13 12 12 12 11 11 11 10 10 9 10 10 9 8 7 7 7 5 3 3 4 5 4 5 6 8 8 9 8 8 6 5 4 3 5
4 7 9 10 11 12 13 12 11 11 10 10 9 8 9 9 9 10 11 10 8 7 6 6 7 7 6 5 4 4 5 6 8 10 10 12 13 12 11 9 9 6 5
5 9 11 11 11 11 10 10 10 10 9 9 8 7 8 10 11 10 10 10 12 12 12 11 11 10 9 8 7 6 5 6 8 10 11 11 14 14 13 16 13 11 8
9 11 12 11 10 9 8 7 8 8 8 7 6 7 9 11 12 13 14 14 14 15 14 14 14 13 13 13 12 11 9 8 6 7 9 9 11 10 13 17 21 15 13
13 12 11 10 9 9 8 7 7 8 8 6 6 7 7 10 11 13 13 14 15 15 15 15 16 15 14 14 13 13 12 10 9 7 7 9 9 11 13 15 19 20 16
13 13 13 11 10 8 7 8 7 8 8 7 6 5 6 7 9 10 11 12 13 12 13 13 13 12 12 12 12 12 12 11 11 11 9 8 8 10 11 13 14 14 19
14 13 13 10 9 7 7 7 7 8 7 6 6 6 6 7 7 7 7 8 8 9 10 11 11 11 11 11 12 11 10 10 11 10 10 10 9 9 10 13 13 14 15
14 12 11 8 6 5 4 5 5 6 6 5 5 5 4 4 4 5 5 6 6 7 8 8 9 10 11 11 11 11 12 11 9 10 9 9 10 10 9 11 13 15 15
13 10 9 7 5 3 2 4 3 3 4 4 5 5 4 4 4 5 5 4 6 7 8 9 10 12 14 13 12 13 13 12 12 10 10 9 8 8 10 9 9 12 15
10 10 9 8 7 6 4 4 4 3 2 4 3 3 3 4 5 5 6 7 9 9 8 9 11 12 13 14 14 14 14 12 12 12 12 12 10 8 6 8 8 9 12
11 10 10 9 9 8 7 6 6 4 3 2 1 3 5 5 6 7 8 9 10 12 11 11 12 13 13 13 13 14 13 14 14 12 12 14 15 12 10 8 10 9 9
11 13 13 12 10 9 8 6 6 4 4 4 5 5 7 9 10 10 12 13 14 14 13 13 12 12 12 13 14 14 13 13 13 12 13 13 15 15 13 11 11 12 12
11 12 12 12 13 11 10 9 7 6 6 6 7 7 9 10 13 15 14 15 16 16 14 14 13 11 11 12 13 13 14 13 13 13 13 14 16 15 16 16 13 13 14
10 13 13 13 14 13 13 10 9 8 8 9 10 11 13 16 20 21 19 18 17 17 16 15 14 13 12 12 12 12 14 14 13 12 13 15 17 17 17 19 18 17 16
13 12 13 13 15 14 14 13 13 13 13 14 15 17 20 24 20 19 19 18 16 17 16 15 16 15 13 13 13 14 15 17 15 14 13 14 15 18 20 20 19 20 20
15 15 14 15 17 17 16 16 17 18 18 20 21 23 24 19 17 17 16 16 15 15 13 14 15 15 15 15 15 16 16 20 20 18 17 14 15 17 18 18 20 22 24
18 17 17 19 20 18 18 19 21 22 22 23 25 19 17 14 14 15 16 16 17 14 12 14 16 16 15 17 18 18 18 18 21 22 22 21 19 18 21 23 24 26 29

GFSSE_500_spd_015.txt.gz
Wind_Speed
19 21 24 22 25 24 22 19 16 17 15 15 14 13 13 13 9 10 9 8 8 8 8 8 8 9 9 11 12 14 14 14 14 12 11 10 9 9 8 8 9 10 11
18 19 18 18 18 15 12 10 19 18 17 17 14 12 12 10 8 9 8 7 6 5 6 8 8 8 10 9 10 12 15 15 14 14 12 11 11 9 9 9 8 8 9
14 13 16 12 14 13 14 18 18 16 15 15 12 11 9 8 8 8 8 7 6 5 5 7 8 7 10 9 9 9 11 13 11 12 12 9 8 9 8 9 8 6 5
15 16 15 16 17 15 16 16 14 12 12 12 11 10 8 7 7 6 6 6 7 7 7 8 8 7 7 7 6 6 8 8 6 7 11 8 8 6 5 7 7 5 5
14 15 15 15 14 14 14 12 11 9 10 10 10 9 6 6 4 4 5 5 6 7 6 7 7 6 6 5 3 3 3 5 8 6 8 11 9 7 4 3 3 3 2
12 11 12 11 10 9 10 9 9 8 8 8 7 5 5 5 4 3 4 6 7 8 6 4 4 5 5 4 3 1 1 2 3 8 4 7 8 6 5 2 2 3 3
10 10 8 8 6 7 8 8 8 7 7 6 6 5 5 5 4 3 4 5 6 7 7 5 3 2 3 4 3 2 2 3 4 1 1 3 5 5 5 3 2 2 3
10 7 5 4 6 6 8 9 8 8 7 8 7 6 8 6 6 3 2 3 5 6 5 5 4 4 2 1 3 4 5 5 6 5 3 2 3 5 4 4 3 3 3
4 3 3 5 6 7 9 9 9 9 9 11 10 11 10 8 6 5 4 4 4 5 5 4 3 1 1 2 2 2 3 6 8 8 6 6 4 6 5 4 4 4 6
2 2 6 7 7 9 11 10 10 10 11 11 12 12 11 10 9 8 8 7 7 6 6 5 4 2 1 2 0 0 2 4 6 7 8 9 8 8 6 6 7 5 4
3 7 8 8 10 10 10 10 10 10 9 9 10 11 12 11 10 10 9 9 7 7 8 8 6 6 6 6 4 3 3 5 5 9 10 12 13 10 9 9 9 9 7
5 7 10 11 10 9 9 9 8 8 9 9 11 12 12 11 12 13 14 14 13 13 12 12 13 13 13 12 10 8 5 4 2 8 13 8 8 11 10 10 11 12 12
8 11 11 11 9 9 8 7 7 7 8 9 10 13 13 13 14 14 13 14 15 14 14 15 15 15 13 14 13 12 10 9 7 5 6 8 7 6 6 10 13 15 15
12 12 11 9 8 7 7 8 7 7 7 8 10 10 12 11 11 11 11 11 12 12 13 13 12 13 12 13 12 11 12 12 11 10 9 9 8 8 9 9 12 19 21
13 12 10 9 7 6 6 6 7 7 6 7 7 8 9 10 9 8 8 9 9 9 10 10 10 10 10 10 10 10 10 11 11 11 10 9 9 7 9 11 10 12 12
14 12 11 9 7 6 6 6 7 6 5 6 5 6 7 7 7 4 5 5 6 6 6 6 8 9 10 11 11 12 10 10 10 10 10 10 9 8 7 9 10 11 11
13 12 9 8 6 5 5 5 4 5 5 5 4 5 4 3 4 2 3 3 4 4 5 6 8 9 9 11 12 13 13 12 10 10 9 8 10 11 10 8 9 10 12
12 10 8 8 6 3 2 2 3 3 3 4 4 4 4 2 2 3 3 4 5 7 8 9 9 10 12 13 13 13 14 13 12 12 11 9 8 9 10 10 9 9 10
9 9 9 8 7 5 3 3 3 2 1 4 3 4 4 3 2 4 5 7 9 10 10 11 11 12 12 13 14 14 13 13 14 13 12 12 9 7 8 11 10 10 9
9 9 8 8 8 7 7 6 6 4 2 1 1 1 2 2 3 4 6 8 10 13 14 13 14 14 13 13 13 14 14 13 13 13 12 12 12 11 8 9 12 13 11
11 11 11 10 9 8 7 5 4 5 4 3 5 5 6 6 9 9 11 14 14 14 16 15 14 13 12 13 13 13 13 13 13 13 13 13 14 14 13 11 11 14 13
13 13 12 12 10 9 8 8 7 7 6 6 7 8 8 10 12 17 17 17 17 16 15 15 14 13 13 14 14 14 13 12 12 13 12 14 14 14 13 13 15 14 14
12 14 14 12 11 11 11 11 10 9 9 9 10 11 13 15 18 21 17 17 16 15 14 14 13 14 15 15 16 15 15 14 13 13 14 15 15 15 13 12 15 15 13
13 11 11 11 13 13 12 13 14 12 13 15 15 17 19 20 22 18 17 16 16 15 14 13 13 15 15 16 18 17 17 16 16 14 13 14 15 17 15 13 16 17 16
16 14 14 12 14 15 14 15 15 15 17 19 20 22 23 23 18 15 15 15 16 17 16 15 14 15 17 18 19 20 20 21 19 19 18 14 14 16 16 16 16 17 19
16 16 17 17 17 17 17 17 18 18 20 23 24 23 20 17 15 14 15 16 17 19 18 17 16 17 17 18 20 21 23 24 24 22 22 18 17 13 16 15 18 21 22

GFSSE_500_spd_021.txt.gz
Wind_Speed
13 10 17 21 16 14 12 17 12 10 9 9 8 9 7 5 7 6 6 6 7 10 9 10 11 13 14 15 16 17 17 17 16 16 16 16 15 11 11 9 10 11 10
16 15 14 16 13 14 16 15 12 11 10 10 9 9 9 7 8 6 6 6 5 10 9 8 9 10 12 13 15 16 16 17 15 16 16 14 16 13 13 13 10 9 9
15 14 13 14 16 16 16 13 11 12 11 10 10 9 8 7 7 6 8 7 7 9 9 6 7 8 11 12 11 10 12 13 14 9 12 11 14 13 13 13 11 8 7
15 15 16 15 16 14 11 11 11 11 10 9 9 7 5 5 4 6 7 6 8 8 8 6 6 6 7 7 6 7 7 11 13 12 13 9 8 9 10 10 11 10 7
17 17 15 15 12 11 10 10 10 9 9 8 6 4 3 3 5 8 8 8 8 7 6 5 5 5 3 3 3 3 4 4 5 7 10 10 7 10 8 7 6 6 4
16 15 14 13 11 10 9 10 9 8 8 6 3 2 3 3 6 7 8 9 8 7 6 6 5 4 2 1 2 3 3 2 4 2 4 8 9 10 10 7 5 4 3
13 12 12 12 11 9 11 10 9 8 6 5 4 3 4 5 5 6 8 9 8 7 8 8 6 3 1 1 3 4 3 3 1 6 10 4 6 8 10 8 6 4 3
11 9 9 10 10 10 10 9 9 8 8 7 7 7 8 7 7 7 8 7 7 8 8 6 6 4 3 3 4 5 6 7 8 4 9 6 3 4 7 7 6 5 4
7 8 10 10 10 10 11 11 11 11 11 11 10 11 9 8 9 9 9 8 8 10 8 8 6 5 5 5 6 7 5 6 9 10 11 3 8 2 4 5 4 4 5
5 7 10 10 11 13 13 13 12 13 14 12 12 11 10 9 8 10 12 11 11 12 11 10 8 8 7 8 5 7 9 12 16 18 9 4 4 2 1 2 2 1 4
4 7 10 12 13 14 13 13 12 12 12 12 12 12 11 13 15 14 15 16 17 16 17 17 15 13 10 12 9 2 15 12 12 14 12 8 3 1 3 5 4 3 0
4 9 13 13 13 12 12 13 13 13 12 11 11 10 11 16 16 16 17 17 18 16 16 16 15 14 12 13 12 13 14 12 13 16 14 7 5 4 3 6 7 5 3
8 11 13 12 11 11 12 13 13 13 13 12 12 11 11 13 14 12 15 14 15 14 14 13 11 11 10 11 11 10 11 11 15 15 15 14 11 7 4 1 2 4 5
11 13 12 11 11 11 12 12 12 12 11 11 11 9 10 9 14 14 13 12 12 12 10 11 10 9 10 8 9 10 11 12 12 12 13 13 13 12 9 6 5 4 5
14 12 13 12 11 11 11 11 11 10 10 9 10 7 7 7 10 12 10 8 9 10 9 7 8 8 7 8 9 11 12 12 11 12 12 12 11 11 11 10 5 6 6
13 13 14 13 10 10 10 9 8 9 9 8 8 7 5 6 7 6 6 7 8 7 7 6 8 8 9 9 10 10 9 10 10 10 10 11 11 10 8 8 7 7 6
13 15 14 12 11 9 9 8 7 7 8 8 8 5 3 4 4 5 5 7 8 7 8 9 8 7 8 8 9 10 11 9 9 8 7 6 8 9 8 8 7 7 7
12 12 11 9 10 10 9 8 7 6 6 7 5 4 2 3 3 4 5 6 7 9 11 11 11 11 11 10 9 9 8 9 10 9 8 8 8 9 9 8 8 8 8
15 13 10 8 7 6 7 6 5 5 6 5 5 3 1 3 3 4 5 6 7 9 10 10 11 11 12 10 11 9 8 8 9 9 8 6 7 10 9 8 7 8 9
9 8 7 5 2 4 3 2 4 4 6 5 4 2 0 2 3 4 6 10 12 12 11 11 11 11 12 11 11 12 10 7 8 9 7 5 6 7 8 7 6 8 9
7 7 6 6 4 3 3 3 3 5 5 5 4 2 3 3 5 8 12 14 14 14 13 12 11 13 12 13 13 12 13 12 10 8 10 10 6 4 7 10 8 7 8
7 7 6 5 4 5 5 4 3 4 4 4 3 3 4 7 9 12 14 16 14 14 13 13 12 11 13 13 13 12 13 14 14 16 15 12 11 9 5 9 9 10 10
10 9 8 7 8 8 7 6 6 6 7 5 4 5 8 10 13 16 17 15 13 12 13 13 13 14 15 15 15 15 16 15 14 14 17 15 13 11 11 8 9 13 13
10 9 9 10 10 9 9 10 9 9 10 8 7 8 11 14 16 16 12 9 10 12 13 14 16 16 17 19 20 19 19 19 18 16 18 17 17 15 13 16 12 11 16
13 13 12 11 11 12 11 12 11 13 12 12 11 12 14 12 11 10 9 8 10 12 14 17 18 20 20 19 21 24 24 23 22 20 19 19 16 17 21 15 20 17 13
17 18 19 17 16 16 16 16 16 16 15 14 14 13 13 11 9 9 9 9 10 10 15 15 17 22 23 23 21 21 25 26 25 25 21 21 21 18 18 21 19 21 20

GFSSE_500_spd_024.txt.gz
Wind_Speed
11 21 19 15 11 10 13 10 9 9 8 7 6 6 7 8 10 9 7 9 10 9 11 12 13 13 16 14 13 14 12 12 13 13 14 14 16 13 12 12 10 10 9
18 18 17 12 11 13 12 9 9 8 7 7 6 7 9 9 10 8 7 9 7 7 10 11 11 11 13 14 13 13 12 12 13 12 14 14 18 14 14 15 12 11 9
17 16 16 14 13 13 11 10 10 8 7 8 7 8 8 9 10 6 8 7 6 7 8 8 9 9 10 12 11 11 10 9 8 8 12 12 14 14 14 14 13 12 9
16 17 16 15 14 13 11 10 8 7 7 7 8 8 6 8 7 6 5 5 6 7 7 6 5 7 7 6 7 7 6 8 8 10 11 10 9 9 10 13 13 11 9
17 16 15 14 13 11 9 8 8 7 6 6 7 5 6 7 7 8 7 6 6 7 6 4 4 4 4 3 4 3 4 1 3 5 10 11 9 8 5 7 8 10 9
14 13 13 12 11 10 9 8 8 6 5 5 5 5 6 5 8 8 8 7 8 7 6 3 3 2 1 1 2 3 1 3 2 1 4 9 10 10 8 6 7 6 7
12 11 12 13 11 10 9 9 7 6 5 6 5 5 6 7 8 8 9 8 8 7 6 6 7 4 3 2 2 3 4 6 11 6 7 3 7 10 10 7 7 8 6
10 10 12 12 12 11 10 9 8 8 7 8 8 10 10 9 9 11 12 10 8 7 8 7 6 6 6 6 6 6 8 9 13 8 9 5 2 4 7 7 7 7 7
7 11 12 12 13 11 11 12 11 9 10 11 12 12 12 14 14 14 12 11 11 10 10 11 9 9 9 8 11 12 11 12 18 12 10 10 6 2 4 5 5 6 5
5 10 13 13 14 14 14 13 13 12 12 12 12 13 14 14 15 15 13 14 14 15 14 12 13 13 13 14 14 14 13 11 13 18 10 6 6 5 4 5 4 3 6
5 10 13 15 15 14 13 12 11 11 13 14 16 17 18 17 18 18 18 16 16 18 17 14 14 15 14 16 16 11 14 16 13 12 9 5 2 5 4 5 7 5 3
7 12 14 15 15 14 14 13 11 12 12 14 14 14 16 16 17 16 17 17 15 15 15 13 13 13 14 14 14 16 16 16 15 14 12 9 5 3 2 3 8 7 5
11 14 13 14 14 14 14 13 11 12 13 13 16 15 13 14 12 14 14 15 12 12 14 12 11 11 12 15 15 11 13 12 13 13 13 10 9 4 4 2 3 5 4
14 14 12 13 14 14 14 13 11 11 12 12 11 12 13 13 12 14 12 11 9 11 12 11 10 12 12 12 10 10 10 11 11 10 9 9 8 9 5 3 1 2 4
15 15 13 13 13 14 13 12 12 10 11 12 9 11 11 12 9 9 8 9 9 11 12 10 10 10 10 9 10 11 10 8 9 8 9 10 10 9 8 5 2 3 3
14 15 14 12 12 12 11 11 10 9 9 11 11 9 10 6 5 6 7 7 9 8 9 9 9 9 11 11 11 11 10 9 9 8 7 8 9 8 7 7 6 4 4
16 16 14 12 11 10 11 10 10 8 8 8 8 7 6 4 4 5 5 5 7 8 9 9 11 11 11 10 10 10 11 10 8 8 7 8 7 8 8 7 6 6 6
17 16 14 12 11 10 10 10 11 9 6 6 5 5 3 3 4 5 5 7 9 11 11 11 10 12 12 10 11 10 10 9 9 9 9 8 7 5 5 5 5 5 7
17 16 13 12 11 11 10 9 10 10 9 7 6 5 4 3 4 5 6 9 11 11 11 11 12 11 11 10 11 11 11 11 10 10 8 8 8 7 7 6 5 7 7
14 12 11 9 9 9 8 7 8 8 8 7 4 2 3 1 4 6 8 10 11 12 11 11 12 11 10 9 10 12 11 10 10 8 9 9 8 10 9 9 8 7 7
12 10 8 9 9 7 7 6 7 9 8 6 6 4 1 2 2 5 10 13 13 11 10 11 11 11 10 11 12 12 11 12 14 11 8 9 10 9 10 10 10 11 10
11 10 9 7 6 6 5 4 6 7 8 8 6 3 1 4 7 10 11 12 11 10 10 11 11 12 12 12 13 14 15 14 16 15 13 12 10 10 10 12 12 12 12
10 11 10 10 7 6 5 5 6 7 7 7 6 6 5 7 9 11 12 10 8 9 11 11 11 12 12 13 13 13 13 14 14 17 15 15 14 13 12 11 14 15 13
6 7 9 10 10 8 7 8 8 9 9 9 9 8 7 10 13 10 7 6 6 8 9 8 10 11 15 16 16 17 17 16 14 15 18 20 20 17 17 16 14 18 18
6 9 10 8 8 8 9 10 11 12 11 11 12 11 11 12 11 6 4 4 6 8 7 10 11 13 16 17 19 19 18 19 19 16 17 18 20 23 18 21 20 16 18
9 13 15 14 14 12 11 12 14 15 13 14 15 13 12 12 7 6 3 3 6 7 10 12 13 16 17 15 23 22 21 19 20 21 18 18 19 18 21 21 23 22 20

GFSSE_500_spd_027.txt.gz
Wind_Speed
17 20 17 12 11 11 10 9 7 8 8 9 8 7 11 12 11 10 9 11 9 7 10 11 12 12 14 13 13 11 10 9 11 11 11 11 11 12 12 12 13 12 12
17 16 12 9 11 11 9 7 7 7 8 7 6 9 11 10 11 11 9 9 7 8 8 10 9 10 11 12 12 10 9 10 11 10 13 13 12 12 12 12 13 12 10
15 14 12 11 11 10 8 8 7 7 6 6 7 9 10 10 11 10 8 7 6 7 8 8 8 7 8 8 10 10 8 5 6 7 11 12 13 12 11 13 13 11 8
14 14 12 12 11 11 9 7 6 6 5 7 8 9 10 10 10 7 6 5 5 6 6 7 6 4 4 4 6 6 7 8 8 6 7 9 9 10 9 10 10 10 9
13 12 11 11 11 10 8 7 5 4 5 6 9 10 9 10 9 7 6 6 6 6 5 5 4 2 2 4 5 4 5 3 4 5 7 7 7 5 7 8 9 8 7
10 10 10 10 9 8 6 5 5 5 5 5 9 8 8 9 9 7 7 8 8 8 6 6 5 3 3 3 5 6 6 8 2 3 5 9 6 4 6 5 8 8 7
9 8 8 9 8 7 7 6 6 6 5 6 8 8 10 10 8 7 7 8 9 10 9 10 9 7 6 6 6 7 7 8 10 4 7 10 7 3 5 7 6 9 9
9 9 9 9 9 9 8 8 7 7 9 10 11 12 11 10 9 9 9 9 10 11 12 10 9 10 9 9 8 7 7 9 14 11 17 11 9 4 3 4 6 6 6
6 11 10 10 10 10 9 10 10 10 11 12 12 14 13 12 11 12 12 12 14 14 17 16 17 16 15 12 12 12 12 12 22 12 16 10 6 5 3 2 3 5 5
7 10 11 11 11 12 12 13 13 14 13 12 13 13 14 13 15 15 17 20 18 19 20 18 17 18 17 12 14 17 15 16 12 13 10 15 7 2 5 4 3 4 5
7 9 11 12 13 14 13 13 12 14 15 15 16 16 16 17 18 17 18 19 18 17 18 16 17 17 15 15 15 15 15 16 15 10 7 7 6 3 6 6 6 5 4
9 10 11 13 14 14 14 13 13 13 15 16 16 15 18 16 17 17 16 15 15 15 14 14 15 15 14 14 13 14 12 13 13 12 10 5 2 1 1 4 8 8 6
13 14 13 12 14 15 14 13 12 13 14 14 14 15 13 14 16 14 14 14 14 14 13 14 14 13 12 11 14 13 12 12 11 11 9 9 8 4 4 1 4 5 7
15 15 13 13 14 15 14 14 14 13 15 13 11 13 13 13 12 12 11 12 12 12 11 13 14 15 15 15 12 9 10 9 9 9 8 8 7 6 1 2 3 2 5
17 16 15 14 14 13 13 13 13 12 13 13 12 12 12 10 10 9 10 10 9 11 11 11 13 13 14 13 11 10 10 10 8 8 8 8 7 6 5 3 2 3 4
16 16 17 16 14 13 12 12 14 13 11 11 11 11 9 8 9 6 8 9 10 10 11 12 11 11 10 10 10 10 10 10 10 9 9 9 7 7 6 6 5 5 6
17 17 15 15 14 13 12 11 12 13 11 10 9 8 8 7 7 4 7 8 8 9 10 9 10 10 8 8 8 9 10 12 12 10 9 9 9 7 5 4 4 5 5
17 17 15 13 12 12 12 11 11 12 12 10 8 7 6 7 6 5 7 6 9 10 11 10 11 12 10 9 8 6 8 8 10 11 9 10 10 9 9 8 6 5 6
18 16 14 12 12 11 11 11 9 9 9 8 7 8 6 5 3 4 5 9 13 14 12 12 10 10 10 8 8 6 5 6 6 8 8 9 11 12 10 9 9 8 8
15 13 13 12 11 10 9 8 7 6 6 7 6 5 4 4 1 2 5 9 13 12 11 11 11 11 10 10 9 8 8 9 7 6 8 8 10 11 12 12 10 10 11
13 12 11 11 10 8 8 8 9 10 8 7 7 6 4 3 0 5 9 12 11 9 9 10 9 8 9 10 10 9 9 8 6 7 9 8 9 10 11 12 11 10 10
13 12 11 10 9 9 9 7 8 9 9 9 6 4 3 1 3 8 10 12 7 6 7 9 11 13 13 15 14 13 13 13 9 7 9 11 12 12 13 13 14 13 12
10 10 11 11 11 9 9 8 7 8 8 7 5 5 5 6 7 11 12 10 7 7 8 10 11 14 17 17 17 16 16 15 14 10 9 10 13 15 15 15 15 15 14
11 11 11 10 9 8 8 10 9 8 8 8 8 7 6 6 9 11 9 9 9 9 8 7 12 13 15 15 16 18 16 16 16 15 12 11 12 14 15 16 18 17 17
9 9 10 10 9 8 9 10 9 10 10 9 9 8 8 9 11 9 9 10 11 10 6 9 12 12 15 13 13 14 18 16 16 16 15 14 15 14 15 15 16 19 18
7 9 9 10 12 11 10 10 10 11 11 11 11 10 10 11 12 11 11 10 8 6 8 9 12 15 14 10 17 15 19 20 16 12 16 16 16 17 16 16 17 18 20

GFSSE_500_spd_030.txt.gz
Wind_Speed
17 19 12 11 11 12 9 7 8 9 10 12 11 9 10 11 11 11 11 13 13 11 11 12 11 15 15 16 15 15 15 14 13 12 10 7 7 10 12 15 14 12 10
18 13 11 9 10 10 9 8 9 9 9 10 9 9 11 12 12 11 12 13 10 9 10 10 11 14 15 15 13 11 11 10 13 12 12 11 9 11 11 12 13 12 9
14 12 9 10 9 8 8 8 10 8 9 8 8 10 12 12 11 10 12 12 9 8 7 9 10 10 11 10 11 10 7 8 7 8 11 13 12 11 11 11 11 9 8
14 12 10 9 9 8 8 9 9 9 9 7 10 13 14 12 12 12 12 11 10 9 7 6 8 7 5 6 7 7 7 6 6 5 7 11 12 10 11 11 11 9 8
13 12 8 8 8 8 8 9 8 8 8 9 13 15 13 13 13 13 12 10 10 11 8 6 5 3 2 3 5 4 3 1 2 6 4 8 9 9 9 8 10 10 9
9 10 8 8 8 7 8 9 8 8 9 11 14 12 12 12 13 12 12 12 13 12 10 8 6 5 4 6 6 5 4 3 1 3 4 7 8 7 6 7 6 8 8
8 8 8 8 8 8 9 9 9 9 11 12 13 12 12 12 11 11 11 12 13 12 12 11 11 10 9 7 6 7 8 9 6 5 7 6 8 7 5 4 5 5 5
6 9 8 8 8 9 9 9 11 12 13 15 14 12 12 12 11 11 11 13 14 15 15 15 14 11 10 10 11 11 10 12 13 9 12 8 6 7 4 2 3 5 4
5 8 9 9 10 10 10 10 12 14 15 15 15 14 14 12 12 15 18 20 21 21 19 19 18 18 17 17 15 15 14 15 13 7 18 10 6 4 4 3 1 3 4
6 7 8 10 11 12 12 13 14 16 15 15 15 14 15 16 19 21 24 24 24 23 20 17 17 18 16 14 14 15 14 14 13 13 15 8 6 1 2 2 1 1 4
6 7 10 12 13 13 13 14 14 15 15 16 17 19 18 20 20 20 20 21 21 19 18 15 14 14 14 13 12 13 14 16 15 10 9 9 6 7 5 5 5 4 3
8 9 10 12 13 13 13 14 15 17 17 17 18 19 18 17 17 17 18 18 19 18 16 15 14 13 13 13 13 12 12 13 13 12 10 5 2 2 2 3 6 5 5
8 12 12 12 13 14 14 15 15 16 15 15 16 14 17 14 15 16 16 16 17 16 15 15 13 11 12 13 14 14 13 12 12 11 9 8 7 2 3 1 1 4 5
11 14 13 14 13 13 13 15 16 16 17 14 14 15 15 13 12 13 14 14 14 14 13 13 12 12 12 13 14 14 13 12 12 11 10 9 7 5 4 2 2 1 4
14 14 14 15 15 13 13 14 15 15 15 14 14 12 12 10 10 13 13 13 13 12 11 10 10 10 9 10 11 12 13 13 13 12 10 11 9 6 6 4 1 2 2
13 14 16 16 15 14 13 13 13 13 14 13 13 12 9 7 10 12 11 11 11 11 11 10 10 8 8 7 7 8 10 11 12 12 12 11 10 9 7 6 5 6 3
16 15 16 17 16 14 13 12 11 11 12 12 10 8 7 8 9 10 10 10 10 10 10 10 9 7 5 5 2 4 6 8 9 10 10 10 10 10 9 9 6 7 6
16 16 16 15 15 14 13 13 12 10 10 10 9 7 7 7 9 9 7 9 11 10 8 7 7 5 3 3 3 2 3 4 5 5 7 8 8 8 8 7 7 6 7
18 15 15 15 14 14 13 14 13 11 9 9 9 8 7 5 8 6 6 8 9 9 7 7 7 7 6 5 4 5 4 3 2 3 5 6 7 7 8 8 8 7 7
17 16 12 11 13 13 12 12 13 11 10 9 10 7 6 4 3 3 5 8 10 8 8 8 8 8 9 9 10 11 9 6 4 3 2 4 4 5 7 8 8 8 8
16 12 12 12 11 12 12 11 9 9 8 8 7 6 4 2 1 2 5 9 10 8 8 10 11 12 11 12 11 11 12 10 9 8 6 5 5 5 6 7 8 8 9
17 15 12 10 11 10 10 9 9 8 7 7 5 3 1 1 4 6 8 10 9 8 8 9 9 12 14 16 15 13 11 11 11 12 10 8 6 7 7 9 9 9 8
13 9 9 9 9 8 8 7 8 9 8 7 5 5 5 4 5 8 10 10 10 9 9 8 10 13 13 16 16 16 17 17 15 13 13 12 11 9 9 10 10 11 12
12 11 9 8 8 8 9 9 8 8 8 8 8 7 6 6 7 9 11 11 10 9 10 8 11 11 13 15 14 14 15 19 18 14 13 13 14 13 12 12 12 12 12
11 11 13 13 12 11 11 11 10 10 10 9 9 9 8 8 9 11 11 11 10 9 8 8 10 11 14 11 14 16 17 20 18 12 11 13 15 17 15 14 15 16 16
12 11 10 10 11 11 12 13 14 13 10 11 10 11 9 9 12 12 13 10 9 5 7 8 11 12 10 12 16 17 18 17 16 14 9 9 13 16 21 22 20 19 20

GFSSE_500_spd_033.txt.gz
Wind_Speed
14 15 14 8 11 9 9 10 11 11 12 14 14 12 10 11 12 14 15 14 15 16 15 14 15 15 15 14 13 14 13 12 11 8 6 7 9 12 16 17 14 12 11
15 12 11 11 10 8 9 9 11 11 13 13 12 12 12 11 14 15 14 14 15 13 14 13 12 14 15 13 11 11 10 10 11 11 9 9 11 12 16 16 14 12 9
12 12 10 10 8 8 8 9 11 11 13 13 13 13 12 13 14 14 15 15 14 12 11 9 9 12 11 11 10 9 7 7 7 10 11 10 11 12 13 14 13 11 8
11 11 11 9 7 7 8 9 11 12 13 12 12 13 15 15 14 14 15 14 11 9 8 7 7 8 8 7 7 4 4 6 5 6 8 10 11 11 11 12 10 9 7
12 11 8 7 7 7 8 11 12 11 12 12 13 15 16 16 15 15 14 13 12 8 7 6 5 5 5 5 3 2 2 2 4 5 5 8 10 10 9 7 8 7 6
10 9 7 7 7 8 10 11 10 9 11 13 14 15 16 16 16 15 15 13 12 10 10 9 8 6 5 3 4 4 4 5 6 3 5 8 8 9 8 7 5 5 5
9 8 8 7 10 11 11 10 8 10 12 15 15 16 18 16 14 14 15 13 12 11 12 11 10 10 10 9 8 6 6 6 2 9 7 7 7 7 7 5 5 4 3
7 9 9 9 11 11 11 10 11 14 16 16 17 17 17 15 13 15 15 16 15 15 14 14 15 16 15 14 13 12 11 11 5 15 12 10 8 7 7 4 3 3 3
5 7 10 12 11 11 12 11 14 16 17 18 18 17 17 19 20 20 20 20 20 20 20 19 17 16 15 15 16 16 15 16 10 11 14 10 8 5 4 4 4 4 4
6 7 10 12 11 12 14 14 16 17 18 19 19 18 22 24 24 23 22 21 20 19 17 17 16 14 13 13 14 14 16 17 17 11 13 9 6 3 1 1 2 3 4
8 8 11 12 12 14 15 16 17 18 19 21 21 22 23 22 22 20 19 18 18 16 15 15 14 13 12 12 12 13 14 15 15 10 4 5 2 4 5 5 5 3 3
8 10 11 11 12 13 15 16 17 19 21 21 22 21 21 19 18 17 17 16 16 16 15 13 14 14 14 13 12 12 13 13 13 11 9 4 1 2 2 4 6 5 5
8 12 12 11 12 12 15 18 18 20 21 20 19 20 18 17 16 16 15 15 14 14 13 12 12 12 14 14 13 13 14 13 12 11 10 8 4 2 5 3 3 5 5
10 12 14 13 13 13 14 16 16 16 17 16 18 16 16 15 14 13 14 13 12 11 10 9 9 10 11 12 14 13 13 13 12 12 11 10 8 5 5 4 1 1 2
13 14 14 15 14 13 15 15 16 16 15 16 16 15 13 13 13 12 13 12 11 10 9 8 6 6 6 8 10 11 11 11 12 11 11 11 10 7 5 3 4 1 2
14 13 14 16 14 14 15 14 14 13 15 14 14 13 11 11 11 11 11 11 9 8 7 5 4 4 4 5 5 6 6 7 8 9 9 10 9 8 7 6 3 5 3
16 13 14 16 16 15 14 14 14 12 13 13 12 11 10 10 10 10 10 10 8 5 4 4 4 4 3 2 2 1 2 2 3 6 7 7 7 7 7 6 5 5 5
16 16 15 15 15 16 15 15 15 14 12 10 10 10 10 9 7 8 8 9 10 8 7 6 7 6 6 5 5 5 3 3 2 2 3 4 5 5 5 5 5 4 4
18 16 16 16 16 16 15 15 14 14 12 10 9 8 8 7 5 5 6 8 9 7 9 9 8 7 8 8 7 9 9 6 7 4 3 2 3 4 6 6 5 5 5
19 17 15 14 13 14 14 13 12 12 12 11 10 8 7 5 2 3 5 7 8 7 8 10 10 8 7 9 10 9 8 8 8 8 7 6 4 4 4 5 6 6 6
19 15 13 13 12 12 13 13 12 10 11 11 9 7 5 1 1 3 6 8 8 7 6 8 6 7 9 11 11 11 9 9 9 9 9 9 8 6 5 6 8 8 8
21 18 14 13 12 12 11 10 10 11 10 11 10 7 4 1 3 6 10 11 9 8 7 6 6 9 11 14 12 12 12 10 9 11 9 10 10 9 8 8 8 9 9
19 16 15 14 13 12 11 10 10 10 12 11 9 6 4 2 3 7 11 13 10 8 7 5 7 9 11 14 13 15 15 18 17 9 8 8 10 11 12 12 12 11 11
18 19 17 14 12 11 10 12 10 8 10 10 9 6 4 4 4 7 9 10 9 8 7 5 6 9 12 13 11 15 15 15 16 13 4 4 6 9 12 14 15 16 16
18 16 17 17 16 15 13 14 12 11 11 11 11 10 8 6 7 8 9 10 7 7 6 6 8 10 11 8 10 11 14 11 12 13 10 7 7 8 9 11 13 16 17
18 18 16 14 15 14 15 16 15 16 14 13 12 12 11 11 11 9 8 10 8 7 5 6 9 9 9 8 8 9 13 14 13 11 13 12 12 13 13 12 12 13 15

GFSSE_500_spd_036.txt.gz
Wind_Speed
13 16 11 11 10 13 14 15 15 14 14 15 15 14 14 14 13 15 15 17 17 16 16 16 16 14 14 12 12 12 10 10 7 7 6 8 11 14 19 17 14 13 11
13 15 11 11 11 12 13 15 15 14 14 15 14 14 14 13 14 15 14 15 14 14 14 16 14 13 12 9 7 9 10 9 10 9 7 10 12 14 17 16 14 12 11
11 9 8 10 9 11 12 14 13 14 14 14 14 13 13 14 15 16 14 13 12 13 12 12 11 9 9 8 7 6 7 8 8 9 9 10 11 13 15 13 12 11 8
16 9 9 8 9 11 11 12 13 13 14 14 13 13 14 14 14 15 14 13 11 11 10 9 7 7 5 5 5 4 3 6 7 7 8 10 11 12 13 12 10 8 5
11 10 8 8 8 9 12 13 13 12 14 14 15 14 15 15 14 13 13 11 11 10 9 7 5 4 3 4 3 3 4 5 3 8 7 8 11 12 11 10 8 6 4
9 8 7 8 7 10 12 12 12 12 13 14 15 17 17 16 14 12 12 12 11 11 9 8 7 7 6 6 5 5 6 7 12 7 8 9 8 10 9 8 6 4 3
8 7 7 7 9 11 12 12 11 12 14 16 17 17 17 16 15 13 13 14 13 12 10 10 10 11 10 9 8 9 9 9 8 6 8 7 6 7 8 7 6 4 4
7 9 9 9 10 11 13 13 12 14 16 18 18 17 16 16 15 15 16 16 15 15 16 16 16 15 15 15 15 14 13 11 3 11 8 9 8 7 4 5 5 4 3
6 9 11 11 11 11 13 14 15 16 18 19 20 19 20 20 20 20 21 20 19 19 17 14 14 14 15 16 17 18 19 17 10 15 10 9 8 5 4 4 2 3 3
8 8 10 11 11 12 14 15 16 18 19 21 23 24 23 22 21 21 20 18 17 16 14 13 13 14 14 14 15 16 17 20 14 13 7 4 4 3 2 1 1 2 3
9 9 10 11 13 15 16 17 17 19 20 22 24 23 21 21 20 18 17 15 15 15 13 13 13 13 13 14 14 15 15 15 13 6 5 4 2 5 4 4 3 2 2
10 11 12 12 14 15 17 17 18 20 21 21 22 20 18 18 17 16 15 14 13 13 14 14 14 12 12 14 15 14 14 13 12 9 6 2 1 2 2 3 4 5 4
10 12 13 13 13 15 18 19 20 22 21 20 19 17 16 15 15 14 13 13 12 11 12 12 13 12 12 12 13 13 13 13 12 10 9 7 3 2 3 4 1 4 6
11 14 14 14 14 17 19 20 19 21 19 18 16 15 14 14 13 12 11 10 8 8 8 8 8 9 10 9 10 12 12 13 12 12 11 9 7 4 4 5 3 1 4
13 14 15 15 16 17 18 18 17 18 15 17 15 13 12 12 12 11 10 10 8 6 4 5 5 7 6 7 7 7 8 9 9 9 10 9 8 6 6 3 3 2 3
15 15 17 15 15 16 17 17 17 17 16 16 13 12 11 10 10 10 9 7 6 5 5 3 4 4 3 2 3 3 4 5 6 6 6 7 7 7 6 6 4 4 2
19 16 17 16 16 17 17 17 16 16 15 14 12 11 10 10 9 8 6 5 4 4 4 5 3 3 5 5 4 4 5 5 5 4 4 4 4 4 5 5 4 4 3
19 17 16 16 16 16 16 16 16 15 14 13 12 10 11 10 9 5 4 4 8 8 8 6 5 5 4 5 5 4 5 6 7 7 5 4 5 5 4 4 4 4 4
20 19 18 16 16 15 15 15 14 14 13 11 11 10 8 8 7 3 3 6 8 8 8 7 6 6 7 7 5 5 4 5 6 8 7 7 5 4 5 5 5 5 6
20 21 18 17 16 15 14 14 14 13 13 12 11 10 8 7 4 2 4 7 8 6 6 5 6 7 7 9 10 10 8 7 6 7 7 8 9 7 5 7 7 8 8
21 17 16 15 14 14 15 16 15 13 13 12 11 10 9 7 4 2 5 7 5 4 5 5 5 6 6 10 10 11 10 9 9 8 8 7 7 8 8 8 8 8 9
21 19 17 17 16 15 15 13 11 11 11 12 12 10 7 5 3 4 7 9 6 4 5 4 4 6 9 12 12 12 11 13 12 8 7 6 6 8 9 10 10 10 10
22 20 19 18 18 14 13 12 11 11 12 15 12 10 7 4 1 4 6 7 5 5 4 4 5 7 11 12 11 13 13 11 13 9 2 3 6 7 9 11 12 11 12
22 22 22 20 17 15 13 13 14 14 14 13 10 10 9 6 2 3 5 6 5 5 3 3 4 8 10 11 13 12 13 11 11 11 7 2 2 4 7 9 10 10 12
23 21 20 19 19 18 17 16 14 12 13 13 15 14 11 9 6 4 2 4 5 7 4 3 5 7 10 9 9 10 13 13 10 11 10 9 7 6 6 8 10 11 12
23 21 19 18 18 17 18 18 16 16 15 15 16 15 13 11 10 8 5 4 5 5 4 4 5 7 9 8 8 9 8 8 10 10 10 11 9 9 8 9 9 10 12

GFSSE_500_spd_042.txt.gz
Wind_Speed
16 17 18 15 14 13 13 13 12 12 13 13 12 13 14 15 15 16 15 16 16 16 15 13 12 11 11 11 10 10 10 9 7 5 5 8 11 13 13 10 9 9 7
14 15 14 13 13 12 12 13 11 12 12 11 11 12 12 13 14 15 14 15 15 15 14 13 12 10 9 8 8 7 7 9 9 7 6 9 11 14 13 9 7 6 5
12 14 13 11 11 11 12 11 11 11 11 11 10 10 10 12 12 13 13 13 12 11 11 10 9 9 8 7 7 7 5 6 9 8 8 8 9 12 10 9 7 5 3
9 11 11 9 10 11 12 11 10 11 10 10 9 9 9 11 11 11 10 9 9 8 7 7 7 8 7 7 6 5 4 3 7 8 9 9 10 10 9 7 6 4 3
5 8 7 9 9 11 11 10 10 10 10 9 9 9 9 10 11 10 9 8 7 7 7 8 8 9 8 7 7 6 5 3 7 8 10 10 11 8 7 6 5 3 2
3 4 6 7 9 11 11 10 10 10 11 11 11 10 11 12 11 10 10 9 10 10 10 11 11 11 10 9 8 9 6 10 9 8 10 10 9 6 5 4 2 2 1
4 4 4 7 9 9 9 9 10 11 11 12 12 13 13 14 13 12 12 13 13 13 13 14 14 14 13 14 13 11 8 15 10 10 10 10 8 6 4 2 1 1 1
4 4 6 8 9 8 9 10 12 12 12 12 13 14 15 15 15 15 16 17 17 16 15 15 15 14 15 17 19 16 8 16 12 10 7 6 7 4 3 0 1 1 1
5 6 8 9 9 8 11 13 13 13 12 12 15 17 18 19 19 18 18 16 14 14 14 14 14 16 17 18 19 22 18 15 11 11 9 9 9 7 4 2 0 1 1
7 7 8 9 10 10 13 14 15 14 13 17 20 21 22 22 19 17 16 14 13 16 15 15 16 15 17 17 19 22 22 18 12 10 7 7 7 4 2 1 2 2 2
9 8 9 10 11 13 15 16 16 16 18 21 22 20 19 18 17 14 13 12 13 15 14 14 13 14 16 19 19 19 18 11 9 5 5 3 5 6 5 1 2 3 3
9 9 9 10 12 14 17 18 18 19 18 20 23 14 13 16 15 13 13 12 14 13 16 14 12 15 16 17 17 18 16 13 11 10 8 5 6 8 8 5 3 3 3
10 11 11 12 14 16 18 19 20 20 14 16 20 18 22 11 8 9 12 11 11 13 14 14 9 13 13 16 15 17 15 12 13 13 11 9 8 9 10 9 9 7 5
9 11 13 13 16 17 18 21 21 19 13 10 10 13 14 10 9 3 6 9 10 13 14 11 10 10 12 13 14 14 13 14 14 14 13 12 11 10 9 10 9 10 10
10 12 12 15 17 18 19 19 20 18 14 12 8 7 8 11 7 9 10 11 10 13 12 10 10 11 11 11 11 11 11 13 13 14 13 12 11 11 10 9 9 7 9
11 12 12 16 18 18 19 19 17 16 14 12 9 7 7 8 7 7 7 9 11 8 5 8 7 8 7 7 7 8 8 9 10 11 12 12 12 12 10 9 8 8 8
13 13 13 16 18 18 18 18 15 14 12 10 9 7 6 5 5 6 6 8 7 6 6 5 6 7 6 7 8 8 8 8 7 7 7 10 11 12 11 9 8 7 7
13 15 15 16 18 18 17 16 15 14 11 8 6 5 5 3 4 3 2 7 10 11 9 9 7 6 6 8 7 7 7 7 5 4 4 6 9 10 10 9 8 8 8
16 16 17 16 17 17 17 16 15 13 11 8 6 5 4 2 2 4 6 3 9 9 8 7 7 7 7 9 8 7 5 6 6 6 4 7 7 8 7 8 9 9 8
19 18 19 18 18 17 16 16 15 13 11 8 6 5 4 2 2 4 6 7 8 8 5 6 8 9 9 9 8 9 7 8 7 4 2 3 4 5 5 8 9 9 9
22 19 20 19 18 17 16 16 15 13 10 8 7 5 4 3 2 4 7 9 8 6 5 7 9 10 9 9 11 11 8 10 8 4 3 1 2 1 4 8 12 12 12
22 22 21 21 20 20 19 18 15 13 11 9 8 7 5 3 3 4 5 4 5 5 6 7 9 9 9 10 11 10 10 11 11 8 5 3 3 5 6 6 7 11 13
20 20 22 22 23 22 20 17 16 14 13 12 10 7 6 5 3 4 4 3 5 5 5 7 7 8 10 10 11 12 12 13 13 11 9 8 8 8 6 6 6 7 10
20 21 23 24 25 24 20 19 19 18 15 11 8 8 9 7 4 2 2 3 4 5 4 5 6 7 5 6 9 10 11 12 12 11 11 9 9 9 7 7 9 11 13
23 22 23 24 23 22 22 22 19 16 14 12 13 13 11 8 5 3 1 2 4 3 2 2 4 5 3 4 7 8 9 9 8 9 10 9 7 8 7 7 11 11 11
21 20 20 21 21 22 22 20 17 16 14 14 15 13 10 8 6 5 5 4 3 4 2 2 1 2 2 2 3 4 5 8 8 6 5 8 6 4 4 7 10 7 9

GFSSE_500_spd_045.txt.gz
Wind_Speed
13 13 11 10 10 10 11 12 12 12 12 11 11 11 13 15 15 16 17 16 15 14 13 11 10 9 9 9 9 8 8 6 5 3 3 6 7 8 9 7 7 6 7
12 12 10 10 10 10 10 11 12 12 12 11 11 10 12 15 15 15 15 15 15 14 12 11 9 7 6 7 7 7 7 8 8 7 5 6 7 11 10 7 7 6 5
10 10 9 9 10 10 10 11 11 12 11 10 10 10 11 13 14 14 13 13 12 11 9 8 9 8 7 6 5 6 6 8 9 8 9 8 9 11 8 7 7 6 4
8 10 8 9 9 11 9 11 12 11 10 10 9 10 11 12 12 12 11 10 10 8 7 8 8 8 7 6 5 4 3 6 12 8 9 10 11 10 8 7 6 6 5
7 9 8 8 9 10 9 11 12 10 10 9 9 11 12 12 12 11 10 10 9 8 9 10 10 9 8 7 5 3 3 7 11 12 12 11 11 8 7 6 6 5 5
5 5 6 8 10 9 9 10 11 10 11 10 11 12 13 14 13 12 11 12 11 12 13 14 14 14 11 9 6 3 4 13 12 14 13 12 10 7 4 3 4 4 5
3 4 6 9 9 9 8 10 11 10 12 11 13 14 15 15 15 14 14 15 15 16 14 14 15 14 15 13 10 8 16 15 14 14 12 11 9 8 6 4 3 3 4
2 4 6 9 9 8 8 10 10 11 13 14 16 17 15 16 17 17 18 17 16 15 15 16 15 16 17 19 17 14 19 15 13 11 11 10 8 8 5 3 3 3 4
3 5 7 8 9 7 8 12 11 13 14 17 18 18 19 19 19 19 19 17 14 14 16 16 17 19 20 21 23 22 20 16 14 13 12 12 10 8 7 5 4 3 4
5 7 8 8 9 9 11 12 12 14 17 19 19 21 21 18 18 15 18 17 16 15 15 14 15 19 21 22 22 25 18 15 14 11 10 8 6 3 3 4 4 4 4
6 7 8 9 10 11 11 13 15 20 21 20 20 19 17 16 14 18 18 17 18 15 14 15 15 17 19 22 21 20 15 14 11 8 6 6 7 7 5 3 3 4 4
6 7 8 10 12 12 13 16 22 24 21 21 19 14 13 14 14 16 16 18 16 14 13 15 15 17 17 19 19 19 17 18 14 12 9 8 8 11 9 6 5 5 4
7 8 9 12 13 13 14 20 23 23 18 19 14 11 13 14 16 15 13 17 13 12 13 12 13 15 15 18 18 15 17 18 15 14 12 11 9 10 11 10 9 7 5
6 7 10 13 15 14 17 21 21 23 11 15 16 8 9 12 14 12 11 14 10 10 10 12 10 12 12 13 14 12 15 15 14 14 12 12 10 10 10 9 7 8 8
7 9 10 14 15 16 17 21 18 17 15 14 13 9 11 12 16 11 11 9 8 6 8 9 8 9 8 8 9 11 10 11 12 13 12 10 10 10 10 10 10 10 11
8 10 10 15 16 17 17 19 17 14 12 12 11 9 7 15 13 12 10 10 6 8 7 6 9 9 9 9 9 10 8 9 9 8 11 10 11 11 11 11 10 10 11
9 10 12 15 16 17 17 17 17 15 11 10 8 8 12 12 13 13 11 10 8 10 9 10 9 10 9 10 10 9 8 7 6 4 9 8 10 11 12 12 10 11 12
9 13 14 17 17 17 18 16 15 12 10 8 7 7 9 10 11 10 7 9 10 11 10 10 9 8 9 10 9 8 7 6 5 4 4 5 7 9 12 12 13 14 13
14 15 16 18 17 17 18 16 15 12 8 7 6 7 8 8 11 10 9 8 8 9 9 9 10 12 12 12 12 11 6 7 5 1 3 4 5 7 9 12 12 11 11
18 18 18 18 17 16 16 16 15 12 9 7 6 6 7 7 7 7 6 7 7 6 7 11 13 12 9 9 9 7 6 8 6 1 2 3 5 8 8 10 8 9 10
20 19 19 18 18 16 17 16 15 13 10 8 6 5 4 6 6 8 7 7 8 10 11 12 14 11 10 11 12 11 11 11 8 5 3 3 6 9 10 11 11 13 14
20 20 20 20 21 19 18 18 15 13 9 8 8 7 5 5 6 6 7 4 6 8 11 12 12 12 12 12 14 14 14 15 13 10 7 6 7 6 8 9 9 12 14
19 18 19 22 22 22 20 18 16 14 12 11 8 7 6 6 6 5 6 5 6 7 9 9 9 9 9 9 10 11 15 15 14 11 9 9 11 10 10 9 13 15 14
20 20 20 21 22 21 20 19 18 17 14 10 9 8 6 6 5 4 4 5 6 7 7 6 5 6 5 6 7 9 10 11 11 10 9 10 11 10 13 12 15 14 14
18 18 19 22 21 19 19 19 17 14 12 12 12 11 7 6 4 3 1 3 4 4 4 3 3 2 2 3 5 7 9 9 7 7 10 9 9 8 11 11 13 14 11
18 17 17 18 20 20 19 18 16 14 13 12 11 9 8 8 6 4 2 1 3 4 3 4 3 3 2 1 3 2 5 7 9 6 3 7 6 5 4 7 7 9 10

GFSSE_500_spd_048.txt.gz
Wind_Speed
8 11 7 7 7 8 9 10 10 10 10 9 10 11 12 13 13 14 14 13 11 10 8 8 9 9 9 8 7 7 7 4 3 5 5 5 5 8 9 8 8 7 8
10 8 6 6 7 8 9 11 11 11 10 10 10 11 12 12 13 15 14 13 12 11 10 8 7 7 5 6 5 5 7 6 4 5 7 6 7 9 8 7 8 7 6
8 6 5 6 8 8 9 11 11 11 11 10 10 10 11 11 12 14 13 12 10 8 7 6 6 5 5 4 4 4 6 7 8 7 7 8 9 9 6 10 8 6 5
6 5 6 7 9 8 9 11 11 10 11 11 11 10 11 12 12 11 10 9 7 6 5 4 4 3 2 4 3 3 5 8 9 8 9 12 13 8 9 8 8 7 6
5 5 5 8 9 8 10 12 11 10 11 12 11 11 12 11 11 10 9 8 7 7 6 6 6 6 4 3 2 3 7 10 13 13 13 14 13 11 9 8 7 6 6
3 5 4 9 9 9 10 12 11 10 11 11 11 13 13 12 12 11 11 11 11 12 12 12 11 10 7 4 4 4 13 12 14 15 13 11 10 9 7 6 5 5 6
4 4 6 8 9 9 10 11 11 11 11 11 13 14 14 14 15 14 14 15 15 14 13 12 12 13 12 8 11 17 18 16 16 13 12 11 9 8 6 5 5 5 5
5 5 8 9 9 9 9 11 11 11 12 14 15 15 15 15 16 17 16 16 15 15 15 16 16 19 17 15 19 19 16 16 14 12 10 10 9 7 5 4 4 5 5
4 7 8 8 8 9 9 11 12 13 16 17 18 18 18 18 16 14 16 15 15 16 16 18 20 22 23 23 20 19 16 15 13 12 12 12 7 7 6 6 5 4 4
5 7 8 8 8 10 12 12 13 18 19 19 20 20 18 16 13 14 15 16 15 15 16 19 20 21 21 22 21 16 15 13 11 10 8 5 4 2 2 4 5 5 4
5 7 8 8 9 11 12 12 17 22 23 23 21 19 16 15 13 14 14 15 14 18 18 17 17 19 19 21 19 17 12 12 9 7 6 8 7 6 5 4 3 4 4
7 8 7 8 11 12 13 16 22 25 23 22 19 17 15 13 15 14 14 11 15 16 17 17 16 17 16 16 17 16 14 13 12 10 7 8 10 11 10 7 5 4 4
7 8 8 10 12 14 17 19 23 23 22 18 15 15 15 12 12 13 10 10 14 13 15 13 14 14 12 13 14 14 12 11 12 12 11 10 11 11 10 11 10 10 9
5 8 10 12 14 15 19 20 22 23 17 19 14 9 11 9 10 11 12 8 10 12 11 11 11 11 11 7 9 10 9 13 13 11 11 14 12 12 11 11 14 13 12
6 9 11 14 14 17 20 18 19 14 16 13 13 13 10 9 10 8 8 7 5 8 8 9 9 9 9 6 7 8 9 9 10 11 13 13 13 12 12 13 13 13 14
7 8 12 14 15 18 21 19 16 17 15 13 13 10 11 10 10 10 8 9 9 8 7 10 10 9 8 8 6 6 6 5 7 11 13 13 14 12 12 12 13 12 12
9 10 12 14 16 18 18 19 19 18 18 14 11 11 10 12 12 12 11 12 12 10 10 11 7 3 5 6 6 4 5 6 6 9 11 12 13 13 14 14 13 13 12
10 12 11 15 16 17 17 18 17 16 19 13 11 10 8 11 11 10 11 10 10 8 9 8 7 8 8 8 9 7 7 7 5 6 9 9 8 12 12 13 14 11 12
13 14 13 16 18 18 17 16 16 15 15 13 12 11 10 10 8 9 10 8 9 9 9 8 8 11 10 10 9 8 7 8 5 6 7 8 8 10 9 11 12 11 11
16 16 16 19 18 17 17 16 15 13 13 12 12 11 10 10 8 7 10 10 11 11 9 10 10 11 11 13 14 10 8 6 7 8 7 8 8 9 12 10 9 11 11
20 18 18 19 19 19 17 17 15 13 12 11 9 9 8 9 9 7 10 11 10 10 12 11 10 11 15 15 14 14 12 10 13 9 8 7 9 9 10 11 12 11 10
24 22 22 21 20 19 19 17 15 13 11 10 9 9 8 7 7 8 8 10 10 10 11 11 11 11 15 15 15 15 15 14 14 11 7 6 6 8 11 11 12 13 12
24 22 22 23 21 20 18 15 14 13 11 10 8 7 8 7 5 6 6 7 7 8 8 9 11 9 12 10 11 13 13 14 15 13 9 6 9 10 13 12 14 16 15
22 23 22 22 20 19 17 16 15 16 12 9 8 8 8 8 5 5 3 4 5 4 7 9 8 9 8 7 8 10 11 9 11 11 9 9 9 10 14 15 15 15 13
20 20 21 21 21 19 17 17 17 14 10 10 10 8 9 9 6 4 4 1 4 5 5 5 7 6 6 6 5 7 10 8 6 6 9 8 7 7 11 11 13 11 10
17 19 18 19 19 19 19 19 17 14 12 11 9 8 9 8 7 4 1 1 2 4 4 5 5 5 5 5 4 6 8 7 8 7 5 7 6 5 6 9 8 8 10